Orbital Elements
Epoch 2011 Feb. 8.0 TT = JDT 2455600.5
T 2011 Jan. 22.94777 TT MPC
q 6.7878713 (2000.0) P Q
z -0.0004470 Peri. 331.61413 -0.45900551 -0.88444233
+/-0.0000094 Node 214.48366 -0.78444576 +0.35901148
e 1.0030344 Incl. 171.45582 -0.41708368 +0.29811494
From 55 observations 2011 May 28-2012 Apr. 24, mean residual 0".5.
|